Weather in Popki

Russia / Volgograd Oblast     50°11′14″N   44°30′08″E
temp.,
°C
wind,
m/s
gust,
m/s
humid.,
%
clouds,
%
prec.,
mm/h
press.,
hPa
HPBL,
m
27 february, sat
sat2700:00+3wsw817100100 0.3 1008396
03:00+2w61499100 0.5 1008383
06:00+1w51198100 0.1 1006313
09:00+1w71396100 0.1 1007629
12:00+1w71296100 0.0 1006615
15:00+1w71396100 0.1 1006699
18:00+1w81497100 0.1 1006667
21:00−3nnw91492100 0.4 1007551
28 february, sun
sun2800:00−8nw7118472 0.0 1010633
03:00−9nw7118684 0.1 1012598
06:00−10nw6108794 0.0 1013514
09:00−9nw698368 0.0 1014500
12:00−7nw587945 0.0 1015547
15:00−6nw587941 0.0 1016544
18:00−8nw478843 0.0 1017400
21:00−8nnw269443 0.0 1019292
1 march, mon
mon100:00−9nnw249471 0.0 1020180
03:00−10nnw249453 0.0 1021136
06:00−10n23922 0.0 1022108
09:00−9n24851 0.0 1024270
12:00−7nnw347664 0.0 1025486
15:00−5nw357571 0.0 1026540
18:00−7nw348823 0.0 1026108
21:00−8wnw239212 0.0 102771
2 march, tue
tue200:00−8w33930 0.0 102675
03:00−8wsw36931 0.0 1024119
06:00−6wsw5119397 0.0 1021282
09:00−3wsw8158898 0.0 1018686
12:00−1wsw91494100 0.4 1015770
15:000wsw101596100 2.8 1012885
18:000wnw71297100 1.6 1010616
21:00−2wnw5119397 1.7 1011338
3 march, wed
wed300:00−2nw7129299 0.1 1011522
03:00−5wnw6129584 0.1 1011290
06:00−2nw7119174 0.1 1011716
09:00−3nw8118887 0.1 1013804
12:00−2nw81086100 0.1 1014922
15:00−2nw81185100 0.2 10151012
18:00−3nw61289100 0.1 1016626
21:00−4nw6139494 0.2 1018647